Regional Weather Roundup
Issued by NWS

Home | Current Version | Previous Version | Graphics & Text | Print | Product List | Glossary On
Versions: 1 2 3 4 5 6 7 8 9 10 11 12 13 14 15 16 17 18 19 20 21 22 23 24 25 26 27 28 29 30 31 32 33 34 35 36 37 38 39 40 41 42 43 44 45 46 47 48 49 50
000
ASUS45 KTFX 081510
RWRMT
MONTANA REGIONAL WEATHER ROUNDUP
NATIONAL WEATHER SERVICE GREAT FALLS MT
800 AM MST MON FEB 08 2016

NOTE: "FAIR" INDICATES FEW OR NO CLOUDS BELOW 12000 FEET WITH NO
SIGNIFICANT WEATHER AND/OR OBSTRUCTIONS TO VISIBILITY.

MTZ001>007-043-081600-
WEST OF THE DIVIDE

CITY           SKY/WX    TMP DP  RH WIND       PRES   REMARKS
KALISPELL      MOCLDY    30  27  86 N3        30.62R
MISSOULA       CLOUDY    31  26  82 CALM      30.65S
BUTTE          CLOUDY    23  19  85 CALM      30.57S
MULLAN PASS    CLOUDY    32  25  75 S5        30.56S
ANACONDA         N/A     28  21  74 CALM      30.59S
DEER LODGE       N/A     28  23  80 SW3       30.60R
HAMILTON         N/A     32  27  80 SE3       30.62S
LIBBY            N/A     30  27  86 SE3       30.65F
PLAINS           N/A     31  26  81 CALM      30.60F
THOMPSON FALLS   N/A     31  28  88 CALM      30.64S
$$

MTZ008-052>055-081600-
SOUTHWEST MONTANA

CITY           SKY/WX    TMP DP  RH WIND       PRES   REMARKS
BOZEMAN        CLOUDY    25  20  81 CALM      30.57R
DILLON         CLOUDY    22  15  75 S5        30.58S
ENNIS          CLEAR     23  19  86 CALM      30.65R
TWIN BRIDGES     N/A     20  12  71 CALM      30.51R
$$

MTZ009-010-012-014-046-048-049-054-081600-
EAST SLOPES AND CENTRAL MONTANA

CITY           SKY/WX    TMP DP  RH WIND       PRES   REMARKS
CUT BANK       PTCLDY    40  27  59 W22       30.36F
GREAT FALLS    CLOUDY    37  23  56 SW15      30.42S WCI  28
MALMSTROM AFB  CLOUDY    38  25  59 SW16      30.43S WCI  29
HELENA         CLOUDY    26  20  77 W3        30.54S
CHOTEAU          N/A     45  28  53 W9G16     30.41R
CONRAD           N/A     44  33  65 SW16      30.35F
$$

MTZ011-013-016-021-045-047-050-051-081600-
NORTH CENTRAL MONTANA

CITY           SKY/WX    TMP DP  RH WIND       PRES   REMARKS
HAVRE          CLOUDY    24  19  81 SW10      30.39S WCI  14
LEWISTOWN      CLOUDY    29  20  69 W12       30.40F WCI  19
N BAR RANCH      N/A     41  23  48 NW17G28   30.37F
CHINOOK          N/A     18  14  86 CALM      30.40R
$$

MTZ017>020-022>027-061-062-081600-
NORTHEAST MONTANA

CITY           SKY/WX    TMP DP  RH WIND       PRES   REMARKS
GLASGOW        CLOUDY    21  15  78 N6        30.40R WCI  13
JORDAN           N/A     23  18  81 W5        30.39S
SIDNEY         CLOUDY    25  16  68 NW14      30.38S WCI  13
WOLF POINT     CLOUDY    25  17  72 W10       30.42R WCI  15
PLENTYWOOD       N/A     19  16  86 W6        30.37R WCI  11
POPLAR           N/A     23  18  80 W5        30.41R
SCOBEY           N/A     20   7  57 W2        30.33R
$$

MTZ028>42-056>058-081600-
SOUTHCENTRAL AND SOUTHEAST MONTANA

CITY           SKY/WX    TMP DP  RH WIND       PRES   REMARKS
BAKER          CLOUDY    23  14  68 W9        30.38S WCI  13
BILLINGS       CLOUDY    29  14  53 SW13      30.43F WCI  19
LIVINGSTON     CLOUDY    40  23  50 W20       30.50R
MILES CITY     CLOUDY    25  16  68 W3        30.42S
EKALAKA          N/A     23  11  60 W7        30.30S WCI  15
FORSYTH          N/A     23  14  68 CALM      30.43R
LAUREL           N/A     26  12  55 SW3       30.38R
ROUNDUP          N/A     23  12  62 CALM      30.28F
$$

REGIONAL REPORTS...DAKOTAS

CITY           SKY/WX    TMP DP  RH WIND       PRES   REMARKS
WILLISTON      CLOUDY    23  16  74 CALM      30.37S
MINOT          PTCLDY    24  14  65 W21       30.28R WCI   9
DICKINSON      CLOUDY    21  14  74 NW17      30.29F WCI   7
BEACH            N/A     23  16  74 W12       30.37F WCI  12
CROSBY           N/A     19  19 100 NW9       30.38R WCI   9
TIOGA            N/A     19  19 100 NW14      30.37R WCI   6
WATFORD CITY     N/A     23  16  74 W9        30.36R WCI  13
BISMARCK       CLEAR     27  17  66 NW16G22   30.29R WCI  15
GRAND FORKS    LGT SNOW  14   8  77 N22G33    30.18S BLWGSNOWWCI  -4
FARGO          LGT SNOW  14   8  77 N21G31    30.17R WCI  -4
BUFFALO SD       N/A     25  14  63 W12       30.29S WCI  14
RAPID CITY     CLOUDY    32  11  41 N22G35    30.33R WCI  19
$$

REGIONAL REPORTS...WYOMING/IDAHO/WASHINGTON

CITY           SKY/WX    TMP DP  RH WIND       PRES   REMARKS
GILLETTE       CLOUDY    23  11  60 W14       30.40R WCI  11
SHERIDAN       CLOUDY    29  20  69 W3        30.43R
BUFFALO WY     CLOUDY    25  12  58 CALM      30.40R
CODY           CLOUDY    23  12  63 CALM      30.42F
YELLOWSTONE LA   N/A      7   3  84 CALM      30.62R
IDAHO FALLS    FOG       22  20  92 N6        30.72R VSB 3/4 WCI  14
SALMON         CLOUDY    23  18  80 CALM      30.73R
BOISE          CLEAR     32  27  81 SE9       30.68S WCI  24
SPOKANE        MOCLDY    30  27  88 NE6       30.60S WCI  24
$$

REGIONAL REPORTS...ALBERTA

CITY           SKY/WX    TMP DP  RH WIND       PRES   REMARKS
EDMONTON       CLOUDY    28  18  64 SW9       30.25S WCI  20
CALGARY        PTCLDY    46  23  39 W17G23    30.28R
LETHBRIDGE     MOCLDY    43  28  56 W20G26    30.33S
MEDICINE HAT   MOCLDY    23  19  86 SE2       30.34F
WATERTON GATE    N/A     39  27  60 SW24G36     N/A  WCI  28
CARDSTON         N/A     45  25  45 W17G26      N/A
MILK RIVER       N/A     34  25  69 W14         N/A  WCI  24
$$

REGIONAL REPORTS...SASKATCHEWAN

CITY           SKY/WX    TMP DP  RH WIND       PRES   REMARKS
SWIFT CURRENT  CLOUDY    23  18  80 SW9       30.32F WCI  13
REGINA         MOCLDY    14  12  92 W3        30.36S
SASKATOON      CLOUDY    16  12  86 S3        30.35F
CYPRESS HILLS    N/A     27  12  54 W2          N/A
VAL MARIE        N/A     19  16  86 SW1         N/A
ROCKGLEN         N/A     23  16  74 NW7         N/A  WCI  15
ASSINIBOIA       N/A     28  23  80 S6          N/A  WCI  22
$$



USA.gov is the U.S. government's official web portal to all federal, state and local government web resources and services.